PROFILE

 METAR AND TAF INFORMATION
ADDS - METARS form results

(1332 UTC 25 September 2022)
http://aviationweather.gov/metar/data/
 
LFSB 251330Z AUTO 28004KT 230V320 9999 SCT028/// BKN034/// BKN043/// ///TCU 16/11 Q1012 TEMPO SHRA FEW030CB
LFSB 251300Z AUTO VRB02KT 9999 FEW020 BKN044 BKN082 17/11 Q1013 TEMPO SHRA FEW030CB
TAF LFSB 251100Z 2512/2612 27004KT 9999 FEW020 BKN040 TEMPO 2512/2524 -SHRA FEW025TCU PROB40 TEMPO 2512/2520 SHRA FEW030CB PROB30 TEMPO 2520/2523 SHRA BKN010 FEW020CB PROB30 TEMPO 2602/2608 BKN012 TEMPO 2608/2612 FEW030TCU 

 AIRPORT MAP

 RUNWAY INFORMATION
Runway 08 Runway length 5969 ft Runway width 197 ft
Runway elevation 881 ft Runway displaced threshold 0 ft Runway heading 77
Runway 26 Runway length 5969 ft Runway width 197 ft
Runway elevation 884 ft Runway displaced threshold 722 ft Runway heading 257
Runway 15 Runway length 12795 ft Runway width 197 ft
Runway elevation 865 ft Runway displaced threshold 0 ft Runway heading 155
Runway 33 Runway length 12795 ft Runway width 197 ft
Runway elevation 882 ft Runway displaced threshold 0 ft Runway heading 335

 AIRPORT FREQUENCIES
Type A/D Name APP Frequency 118.575 MHZ
Type ATIS Name ATIS Frequency 127.875 MHZ
Type GND Name GND Frequency 121.6 MHZ
Type INFO Name INFO Frequency 121.25 MHZ
Type PFLT Name PREFLIGHT Frequency 120.5 MHZ
Type TWR Name TWR Frequency 118.3 MHZ

 AIRPORT NEAR NAVIGATION AIDS
Type VOR-DME Name Bale Mulhouse Frequency 117450 KHZ
Type NDB Name Bale Mulhouse Frequency 353 KHZ